Regional Weather Roundup
Issued by NWS

Home | Current Version | Previous Version | Text Only | Print | Product List | Glossary Off
Versions: 1 2 3 4 5 6 7 8 9 10 11 12 13 14 15 16 17 18 19 20 21 22 23 24 25 26 27 28 29 30 31 32 33 34 35 36 37 38 39 40 41 42 43 44 45 46 47 48 49 50

000
ASUS43 KOAX 270602
RWRNE

WEATHER ROUNDUP FOR NEBRASKA
NATIONAL WEATHER SERVICE OMAHA NE
100 AM CDT MON APR 27 2015

NOTES: SATELLITE DATA IS BEING USED TO AUGMENT CLOUD COVER ABOVE
       12000 FEET.
       "FAIR" INDICATES FEW OR NO CLOUDS BELOW 12,000 FEET WITH NO
       SIGNIFICANT WEATHER AND/OR OBSTRUCTIONS TO VISIBILITY.

  * THESE STATIONS DO NOT REPORT WEATHER SUCH AS RAIN...SNOW OR FOG.

NEZ001>004-019>022-054>056-270700-
NEBRASKA PANHANDLE

CITY           SKY/WX    TMP DP  RH WIND       PRES   REMARKS
SCOTTSBLUFF    CLOUDY    44  50 100 E5        30.15R
6HR MIN TEMP:  44; 6HR MAX TEMP:  46;

ALLIANCE       CLOUDY    42  40  92 CALM      30.14R
6HR MIN TEMP:  41; 6HR MAX TEMP:  48;

CHADRON        MOCLDY    43  39  86 NE3       30.15R
6HR MIN TEMP:  42; 6HR MAX TEMP:  52;

KIMBALL        CLOUDY    40  40  99 SE9       30.12S FOG     WCI  35
SIDNEY         CLOUDY    43  40  89 E6        30.14S FOG
6HR MIN TEMP:  41; 6HR MAX TEMP:  43; 6HR PCP:  0.01;

$$

NEZ057>060-069>072-079>082-270700-
SOUTHWEST NEBRASKA

CITY           SKY/WX    TMP DP  RH WIND       PRES   REMARKS
IMPERIAL       CLOUDY    46  42  86 NE7       30.11R
6HR MIN TEMP:  46; 6HR MAX TEMP:  47;

MCCOOK         CLOUDY    50  43  77 NE7       30.11R
6HR MIN TEMP:  50; 6HR MAX TEMP:  53;

$$

NEZ005>010-023>029-035>040-094-270700-
NORTH CENTRAL NEBRASKA

CITY           SKY/WX    TMP DP  RH WIND       PRES   REMARKS
VALENTINE      CLEAR     41  31  67 CALM      30.15R
6HR MIN TEMP:  41; 6HR MAX TEMP:  60;

AINSWORTH      CLEAR     40  30  68 S7        30.15R WCI  35
BROKEN BOW     CLEAR     38  34  85 CALM      30.12R
6HR MIN TEMP:  37; 6HR MAX TEMP:  56;

ORD            CLEAR     39  33  79 CALM      30.11S
6HR MIN TEMP:  37; 6HR MAX TEMP:  59;

$$

NEZ041-046>049-061>064-073>077-083>087-270700-
SOUTH CENTRAL NEBRASKA

CITY           SKY/WX    TMP DP  RH WIND       PRES   REMARKS
GRAND ISLAND   PTCLDY    39  34  82 NE6       30.10S WCI  35
6HR MIN TEMP:  39; 6HR MAX TEMP:  58;

HASTINGS       MOCLDY    43  37  79 NE5       30.09R
6HR MIN TEMP:  43; 6HR MAX TEMP:  57;

KEARNEY *      MOCLDY    43  36  75 NE5       30.11R
YORK           PTCLDY    41  37  87 NE5       30.10S
$$

NEZ011>018-030>034-042>045-270700-
NORTHEAST NEBRASKA

CITY           SKY/WX    TMP DP  RH WIND       PRES   REMARKS
NORFOLK        CLEAR     43  34  70 CALM      30.12R
6HR MIN TEMP:  40; 6HR MAX TEMP:  62;

BLAIR          CLEAR     48  32  54 E7        30.10S
COLUMBUS *     CLEAR     39  30  70 CALM      30.13R
TEKAMAH        CLEAR     42  35  76 N6        30.12R
6HR MIN TEMP:  42; 6HR MAX TEMP:  64;

$$

NEZ050>053-065>068-078-088>093-270700-
SOUTHEAST NEBRASKA

CITY           SKY/WX    TMP DP  RH WIND       PRES   REMARKS
LINCOLN        PTCLDY    42  36  79 N6        30.10S
6HR MIN TEMP:  39; 6HR MAX TEMP:  62;

OMAHA EPPLEY   CLEAR     42  38  85 NW5       30.11R
6HR MIN TEMP:  42; 6HR MAX TEMP:  62;

FALLS CITY     PTCLDY    48  32  53 NE6       30.06F
6HR MIN TEMP:  48; 6HR MAX TEMP:  62;

PLATTSMOUTH    CLEAR     48  32  52 E6        30.10R
$$

NEZ044-045-051>053-067-270700-
OMAHA AREA

CITY           SKY/WX    TMP DP  RH WIND       PRES   REMARKS
OMAHA EPPLEY   CLEAR     42  38  85 NW5       30.11R
6HR MIN TEMP:  42; 6HR MAX TEMP:  62;

BLAIR          CLEAR     48  32  54 E7        30.10S
OFFUTT AFB     CLEAR     41  34  76 NE7       30.09S
PLATTSMOUTH    CLEAR     48  32  52 E6        30.10R
$$



USA.gov is the U.S. government's official web portal to all federal, state and local government web resources and services.